Florence, Italy

10:44 AM CET on November 20, 2017 (GMT +0100)
Peretola

Weather History for LIRQ - December, 2013

Change the Weather History Date:

Tuesday, December 24, 2013

  Actual Average Record
Temperature  
Mean Temperature 50 °F -  
Max Temperature 55 °F 50 °F 60 °F (1996)
Min Temperature 46 °F 35 °F 24 °F (1998)
Degree Days  
Heating Degree Days 14    
Moisture  
Dew Point 47 °F    
Average Humidity 86    
Maximum Humidity 100    
Minimum Humidity 68    
Precipitation  
Precipitation 0.00 in 0.10 in - ()
Sea Level Pressure  
Sea Level Pressure 30.16 in    
Wind  
Wind Speed 4 mph ()    
Max Wind Speed 12 mph    
Max Gust Speed -    
Visibility 4.1 miles    
Events      
Averages and records for this station are not official NWS values.
T = Trace of Precipitation, MM = Missing Value Source: Averaged Metar Reports

Daily Weather History Graph

Daily Weather History Graph

Search for Another Location

Airport or City:

Trip Planner

Search our weather history database for the weather conditions in past years. The results will help you decide how hot, cold, wet, or windy it might be!

Date:

Astronomy

Dec. 24, 2013 Rise Set
Actual Time 7:47 AM CET 4:42 PM CET
Civil Twilight 7:14 AM CET 5:15 PM CET
Nautical Twilight 6:37 AM CET 5:51 PM CET
Astronomical Twilight 6:02 AM CET 6:26 PM CET
Moon 11:47 PM CET (12/24) 11:21 AM CET (12/24)
Length of Visible Light 10h 00m
Length of Day
8h 55m
Waning Gibbous, 61% of the Moon is Illuminated
Dec 24
Waning Gibbous
Dec 25
Last Quarter
Jan 1
New
Jan 8
First Quarter
Jan 16
Full

Hourly Weather History & Observations

Time (CET) Temp. Dew Point Humidity Pressure Visibility Wind Dir Wind Speed Gust Speed Precip Events Conditions
12:20 AM 50.0 °F 48.2 °F 94% 30.27 in 2.2 mi Variable 2.3 mph - N/A   Mostly Cloudy
12:50 AM 50.0 °F 48.2 °F 94% 30.24 in 1.6 mi Variable 2.3 mph - N/A   Mostly Cloudy
1:00 AM 49 °F 49 °F 98% 30.27 in 2 mi NE 2.3 mph - -   Mist
1:20 AM 48.2 °F 48.2 °F 100% 30.24 in 1.2 mi NE 3.5 mph - N/A   Mostly Cloudy
1:50 AM 50.0 °F 48.2 °F 94% 30.24 in 1.6 mi Variable 2.3 mph - N/A   Mostly Cloudy
2:20 AM 48.2 °F 48.2 °F 100% 30.24 in 1.6 mi Calm Calm - N/A   Mostly Cloudy
2:50 AM 48.2 °F 48.2 °F 100% 30.24 in 1.6 mi SSW 3.5 mph - N/A   Mostly Cloudy
3:20 AM 48.2 °F 48.2 °F 100% 30.24 in 1.6 mi SW 2.3 mph - N/A   Mostly Cloudy
3:50 AM 48.2 °F 48.2 °F 100% 30.24 in 1.6 mi Calm Calm - N/A   Mostly Cloudy
4:00 AM 49 °F 47 °F 92% 30.25 in 2 mi ESE 1.2 mph - -   Mist
4:20 AM 48.2 °F 48.2 °F 100% 30.24 in 1.6 mi Variable 2.3 mph - N/A   Mostly Cloudy
4:50 AM 48.2 °F 48.2 °F 100% 30.21 in 1.9 mi ESE 5.8 mph - N/A   Mostly Cloudy
5:20 AM 48.2 °F 46.4 °F 93% 30.21 in 2.5 mi SE 4.6 mph - N/A   Mostly Cloudy
5:50 AM 48.2 °F 46.4 °F 93% 30.21 in 2.5 mi NNE 4.6 mph - N/A   Mostly Cloudy
6:20 AM 48.2 °F 48.2 °F 100% 30.21 in 2.2 mi West 4.6 mph - N/A   Mostly Cloudy
6:50 AM 48.2 °F 46.4 °F 93% 30.21 in 2.2 mi SSW 4.6 mph - N/A   Mostly Cloudy
7:00 AM 48 °F 46 °F 92% 30.23 in 2 mi SSW 4.6 mph - -   Mist
7:20 AM 48.2 °F 46.4 °F 93% 30.21 in 2.2 mi Variable 1.2 mph - N/A   Scattered Clouds
7:50 AM 48.2 °F 46.4 °F 93% 30.21 in 2.2 mi Variable 2.3 mph - N/A   Mostly Cloudy
8:20 AM 48.2 °F 46.4 °F 93% 30.21 in 2.5 mi NW 1.2 mph - N/A   Mostly Cloudy
8:50 AM 48.2 °F 48.2 °F 100% 30.21 in 2.5 mi Variable 1.2 mph - N/A   Mostly Cloudy
9:20 AM 50.0 °F 48.2 °F 94% 30.21 in 2.5 mi Variable 1.2 mph - N/A   Scattered Clouds
9:50 AM 51.8 °F 48.2 °F 88% 30.21 in 3.1 mi Variable 1.2 mph - N/A   Scattered Clouds
10:00 AM 52 °F 47 °F 79% 30.23 in 3 mi South 4.6 mph - -   Mist
10:20 AM 51.8 °F 46.4 °F 82% 30.21 in 3.1 mi SE 6.9 mph - N/A   Scattered Clouds
10:50 AM 51.8 °F 46.4 °F 82% 30.21 in 3.7 mi SE 6.9 mph - N/A   Scattered Clouds
11:20 AM 53.6 °F 46.4 °F 77% 30.18 in 3.7 mi SE 5.8 mph - N/A   Scattered Clouds
11:50 AM 53.6 °F 46.4 °F 77% 30.18 in 4.3 mi SSE 6.9 mph - N/A   Partly Cloudy
12:20 PM 51.8 °F 46.4 °F 82% 30.18 in 4.3 mi SE 9.2 mph - N/A   Scattered Clouds
12:50 PM 53.6 °F 46.4 °F 77% 30.15 in 4.3 mi SE 8.1 mph - N/A   Scattered Clouds
1:00 PM 54 °F 47 °F 68% 30.17 in 4 mi SE 8.1 mph - -   Mist
1:20 PM 55.4 °F 48.2 °F 77% 30.15 in 5.6 mi SE 6.9 mph - N/A   Partly Cloudy
1:50 PM 55.4 °F 46.4 °F 72% 30.12 in 6.2 mi SE 6.9 mph - N/A   Scattered Clouds
2:20 PM 53.6 °F 46.4 °F 77% 30.12 in 6.2 mi ESE 8.1 mph - N/A   Scattered Clouds
2:50 PM 53.6 °F 46.4 °F 77% 30.12 in 6.2 mi SE 5.8 mph - N/A   Scattered Clouds
3:20 PM 51.8 °F 46.4 °F 82% 30.12 in 6.2 mi SE 8.1 mph - N/A   Mostly Cloudy
3:50 PM 51.8 °F 46.4 °F 82% 30.12 in 6.2 mi ESE 9.2 mph - N/A   Mostly Cloudy
4:00 PM 52 °F 46 °F 75% 30.13 in 6 mi ESE 8.1 mph - -   Mostly Cloudy
4:20 PM 51.8 °F 46.4 °F 82% 30.12 in 6.2 mi ESE 5.8 mph - N/A   Mostly Cloudy
4:50 PM 51.8 °F 46.4 °F 82% 30.09 in 6.2 mi East 6.9 mph - N/A   Mostly Cloudy
5:20 PM 51.8 °F 46.4 °F 82% 30.09 in 6.2 mi East 6.9 mph - N/A   Mostly Cloudy
5:50 PM 53.6 °F 46.4 °F 77% 30.09 in 6.2 mi ESE 10.4 mph - N/A   Mostly Cloudy
6:20 PM 53.6 °F 46.4 °F 77% 30.09 in 6.2 mi East 8.1 mph - N/A   Mostly Cloudy
6:50 PM 53.6 °F 46.4 °F 77% 30.06 in 6.2 mi East 9.2 mph - N/A   Mostly Cloudy
7:00 PM 53 °F 47 °F 73% 30.09 in 6 mi ESE 8.1 mph - -   Mostly Cloudy
7:20 PM 53.6 °F 46.4 °F 77% 30.06 in 6.2 mi ESE 9.2 mph - N/A   Mostly Cloudy
7:50 PM 53.6 °F 46.4 °F 77% 30.06 in 6.2 mi East 10.4 mph - N/A   Mostly Cloudy
8:20 PM 51.8 °F 46.4 °F 82% 30.06 in 6.2 mi East 9.2 mph - N/A   Mostly Cloudy
8:50 PM 53.6 °F 46.4 °F 77% 30.06 in 6.2 mi East 9.2 mph - N/A   Mostly Cloudy
9:20 PM 51.8 °F 46.4 °F 82% 30.04 in 6.2 mi East 9.2 mph - N/A   Mostly Cloudy
9:50 PM 51.8 °F 46.4 °F 82% 30.04 in 6.2 mi East 10.4 mph - N/A   Scattered Clouds
10:00 PM 52 °F 46 °F 73% 30.05 in 6 mi East 10.4 mph - -   Mostly Cloudy
10:20 PM 51.8 °F 46.4 °F 82% 30.04 in 6.2 mi East 11.5 mph - N/A   Mostly Cloudy
10:50 PM 51.8 °F 46.4 °F 82% 30.04 in 6.2 mi East 11.5 mph - N/A   Mostly Cloudy
11:20 PM 53.6 °F 46.4 °F 77% 30.01 in 6.2 mi East 9.2 mph - N/A   Scattered Clouds
11:50 PM 51.8 °F 46.4 °F 82% 30.01 in 6.2 mi East 11.5 mph - N/A   Scattered Clouds